Flag for U.S.A. Weather past 2 weeks in Santa Clara, California, U.S.A.

Now
60 °F

Broken clouds.


Feels Like: 60 °F
Forecast: 55 / 67 °F
Wind: 12 mph from West

Location: San Jose International Airport

Current Time: May 22, 2015 at 8:50:09 PM

Latest Report: May 22, 2015 at 7:53 PM


Visibility: 10 mi

Pressure: 30.06 "Hg

Humidity: 65%

Dew point: 48 °F

Location of Santa ClaraLocation

Historic Weather in Santa Clara — Graph

°F

Santa Clara temperature yesterday

Maximum temperature yesterday: 67 °F (at 11:53 AM)
Minimum temperature yesterday: 57 °F (at 12:53 AM)
Average temperature yesterday: 61 °F

Past Weeks' High & Low Weather Summary

 TemperatureHumidityPressure
High71 °F (May 8, 1:53 PM)100% (May 14, 4:53 PM)30.13 "Hg (May 14, 4:53 PM)
Low47 °F (May 12, 5:53 AM)34% (May 12, 4:53 PM)29.77 "Hg (May 8, 12:53 AM)
Average58 °F66%29.98 "Hg
* Reported May 7 6:53 PM — May 22 6:53 PM, Santa Clara, Weather by CustomWeather, © 2015

Note: Actual official high and low records may vary slightly from our data, if they occured in-between our weather recording intervals... More about our weather records

Advertising

Santa Clara weather history for previous 24 hours

 ConditionsComfort  
Time TempWeatherWind HumidityBarometerVisibility
6:53 PM
Fri, May 22
61 °FBroken clouds.12 mph65%30.03 "Hg10 mi
5:53 PM63 °FBroken clouds.20 mph63%30.02 "Hg10 mi
4:53 PM65 °FBroken clouds.17 mph63%30.01 "Hg10 mi
3:53 PM67 °FBroken clouds.18 mph59%30.00 "Hg10 mi
2:53 PM67 °FBroken clouds.14 mph57%30.00 "Hg10 mi
1:53 PM67 °FBroken clouds.8 mph57%30.01 "Hg10 mi
12:53 PM64 °FMostly cloudy.9 mph61%30.02 "Hg10 mi
11:53 AM63 °FMostly cloudy.3 mph63%30.03 "Hg10 mi
10:53 AM61 °FMostly cloudy.9 mph67%30.02 "Hg10 mi
9:53 AM61 °FMostly cloudy.3 mph70%30.02 "Hg10 mi
8:53 AM59 °FMostly cloudy.5 mph75%30.02 "Hg10 mi
7:53 AM57 °FBroken clouds.No wind81%30.01 "Hg10 mi
6:53 AM56 °FBroken clouds.No wind84%30.00 "Hg10 mi
5:53 AM55 °FMostly cloudy.No wind74%29.99 "Hg10 mi
5:02 AM55 °FMostly cloudy.No wind72%29.99 "Hg10 mi
4:53 AM55 °FOvercast.No wind74%29.99 "Hg10 mi
3:53 AM55 °FPassing clouds.No wind74%29.98 "Hg10 mi
2:53 AM54 °FPassing clouds.5 mph77%29.98 "Hg10 mi
1:53 AM57 °FOvercast.No wind78%29.98 "Hg10 mi
12:53 AM56 °FClear.5 mph77%29.98 "Hg10 mi
11:53 PM
Thu, May 21
58 °FPassing clouds.3 mph78%29.98 "Hg10 mi
10:53 PM58 °FPartly cloudy.9 mph78%29.98 "Hg10 mi
9:53 PM59 °FPartly cloudy.6 mph69%29.97 "Hg10 mi
8:53 PM60 °FBroken clouds.9 mph69%29.96 "Hg10 mi
Weather by CustomWeather, © 2015

See weather overviewHow to use our weather pages